| time (UTC) | temp F | wind direction | speed knots | gust knots | rain 1hr in | rain 24hr in | rain mn in | humidity % | barometer mb |
| 20260504001933 | 52 | 223 | 0.0 | 0.0 | 0.00 | 0.00 | 0.00 | 55 | 1011.5 |
| 20260504000942 | 54 | 223 | 0.0 | 0.0 | 0.00 | 0.00 | 0.00 | 47 | 1011.4 |
| 20260503235930 | 55 | 223 | 0.0 | 1.7 | 0.00 | 0.00 | 0.00 | 46 | 1011.4 |
| 20260503234939 | 56 | 223 | 0.0 | 1.7 | 0.00 | 0.00 | 0.00 | 41 | 1011.2 |
| 20260503233928 | 57 | 256 | 0.9 | 5.2 | 0.00 | 0.00 | 0.00 | 39 | 1011.1 |
| 20260503232937 | 58 | 215 | 0.9 | 4.3 | 0.00 | 0.00 | 0.00 | 37 | 1011.0 |
| 20260503231926 | 58 | 326 | 0.9 | 5.2 | 0.00 | 0.00 | 0.00 | 35 | 1011.0 |
| 20260503230936 | 58 | 227 | 1.7 | 7.0 | 0.00 | 0.00 | 0.00 | 33 | 1011.0 |
| 20260503225929 | 59 | 298 | 3.5 | 7.0 | 0.00 | 0.00 | 0.00 | 33 | 1010.9 |
| 20260503224938 | 60 | 214 | 0.9 | 7.8 | 0.00 | 0.00 | 0.00 | 33 | 1010.9 |
| 20260503223927 | 59 | 287 | 1.7 | 6.1 | 0.00 | 0.00 | 0.00 | 32 | 1010.8 |
| 20260503222936 | 59 | 311 | 4.3 | 7.0 | 0.00 | 0.00 | 0.00 | 33 | 1010.8 |
| 20260503220938 | 60 | 298 | 1.7 | 5.2 | 0.00 | 0.00 | 0.00 | 34 | 1010.7 |
| 20260503215927 | 60 | 212 | 0.0 | 4.3 | 0.00 | 0.00 | 0.00 | 34 | 1010.6 |
| 20260503214937 | 59 | 186 | 1.7 | 6.1 | 0.00 | 0.00 | 0.00 | 33 | 1010.6 |
| 20260503213945 | 59 | 256 | 0.9 | 6.1 | 0.00 | 0.00 | 0.00 | 32 | 1010.5 |
| 20260503212933 | 60 | 331 | 2.6 | 7.8 | 0.00 | 0.00 | 0.00 | 31 | 1010.6 |
| 20260503210938 | 61 | 306 | 1.7 | 6.1 | 0.00 | 0.00 | 0.00 | 32 | 1010.7 |
| 20260503205927 | 61 | 286 | 2.6 | 6.1 | 0.00 | 0.00 | 0.00 | 32 | 1010.6 |
| 20260503204936 | 60 | 330 | 1.7 | 6.1 | 0.00 | 0.00 | 0.00 | 34 | 1010.6 |
| 20260503203946 | 60 | 227 | 4.3 | 7.8 | 0.00 | 0.00 | 0.00 | 34 | 1010.8 |
| 20260503202934 | 60 | 337 | 4.3 | 10.4 | 0.00 | 0.00 | 0.00 | 34 | 1010.8 |
| 20260503201944 | 59 | 353 | 3.5 | 7.8 | 0.00 | 0.00 | 0.00 | 34 | 1011.0 |
| 20260503200934 | 59 | 281 | 1.7 | 8.7 | 0.00 | 0.00 | 0.00 | 34 | 1011.1 |
| 20260503195944 | 59 | 2 | 2.6 | 9.6 | 0.00 | 0.00 | 0.00 | 32 | 1011.1 |
| 20260503194932 | 58 | 6 | 2.6 | 11.3 | 0.00 | 0.00 | 0.00 | 35 | 1011.1 |
| 20260503193926 | 58 | 314 | 2.6 | 5.2 | 0.00 | 0.00 | 0.00 | 36 | 1011.1 |
| 20260503191928 | 58 | 279 | 3.5 | 10.4 | 0.00 | 0.00 | 0.00 | 36 | 1011.5 |
| 20260503190937 | 57 | 298 | 3.5 | 7.8 | 0.00 | 0.00 | 0.00 | 38 | 1011.4 |
| 20260503185926 | 57 | 360 | 4.3 | 11.3 | 0.00 | 0.00 | 0.00 | 34 | 1011.3 |
| 20260503184935 | 57 | 335 | 2.6 | 12.2 | 0.00 | 0.00 | 0.00 | 38 | 1011.5 |
| 20260503183944 | 57 | 313 | 2.6 | 8.7 | 0.00 | 0.00 | 0.00 | 36 | 1011.4 |
| 20260503182934 | 57 | 283 | 1.7 | 7.8 | 0.00 | 0.00 | 0.00 | 37 | 1011.9 |
| 20260503175935 | 56 | 299 | 2.6 | 6.1 | 0.00 | 0.00 | 0.00 | 38 | 1011.6 |
| 20260503174944 | 55 | 314 | 2.6 | 8.7 | 0.00 | 0.00 | 0.00 | 40 | 1011.8 |
| 20260503172944 | 55 | 285 | 4.3 | 9.6 | 0.00 | 0.00 | 0.00 | 40 | 1012.2 |
| 20260503171932 | 54 | 312 | 1.7 | 8.7 | 0.00 | 0.00 | 0.00 | 39 | 1012.1 |
| 20260503170941 | 53 | 210 | 3.5 | 7.0 | 0.00 | 0.00 | 0.00 | 41 | 1012.1 |
| 20260503130931 | 48 | 323 | 2.6 | 7.8 | 0.00 | 0.00 | 0.00 | 56 | 1012.9 |
| 20260503080930 | 44 | 17 | 0.9 | 7.0 | 0.00 | 0.01 | 0.00 | 63 | 1010.9 |
| 20260503072931 | 44 | 34 | 0.0 | 4.3 | 0.00 | 0.01 | 0.00 | 63 | 1010.8 |
| 20260503071942 | 44 | 352 | 0.0 | 0.9 | 0.00 | 0.01 | 0.00 | 64 | 1010.8 |
| 20260503070931 | 45 | 350 | 1.7 | 2.6 | 0.00 | 0.01 | 0.00 | 63 | 1010.6 |
| 20260503054932 | 46 | 56 | 0.9 | 6.1 | 0.00 | 0.01 | 0.00 | 59 | 1010.5 |
| 20260503053940 | 46 | 29 | 0.9 | 2.6 | 0.00 | 0.01 | 0.00 | 60 | 1010.5 |
| 20260503052930 | 46 | 8 | 0.9 | 6.1 | 0.00 | 0.01 | 0.00 | 60 | 1010.7 |
| 20260503051924 | 46 | 45 | 0.9 | 2.6 | 0.00 | 0.01 | 0.00 | 59 | 1010.9 |
| 20260503050935 | 46 | 30 | 0.0 | 2.6 | 0.00 | 0.01 | 0.00 | 59 | 1011.1 |
| 20260503045925 | 47 | 342 | 1.7 | 6.1 | 0.00 | 0.01 | 0.00 | 58 | 1011.3 |
| 20260503044935 | 47 | 73 | 0.9 | 4.3 | 0.00 | 0.01 | 0.00 | 57 | 1011.2 |
| 20260503043925 | 47 | 52 | 0.9 | 2.6 | 0.00 | 0.01 | 0.00 | 58 | 1011.4 |
| 20260503042935 | 47 | 348 | 0.9 | 1.7 | 0.00 | 0.01 | 0.00 | 59 | 1011.5 |
| 20260503040936 | 48 | 52 | 0.9 | 2.6 | 0.00 | 0.01 | 0.00 | 56 | 1011.6 |
| 20260503035925 | 48 | 196 | 2.6 | 3.5 | 0.00 | 0.01 | 0.01 | 54 | 1011.5 |
| 20260503034939 | 48 | 59 | 0.9 | 4.3 | 0.00 | 0.01 | 0.01 | 57 | 1011.5 |
| 20260503031930 | 47 | 92 | 0.9 | 1.7 | 0.00 | 0.01 | 0.01 | 57 | 1011.7 |
| 20260503030940 | 47 | 337 | 0.0 | 3.5 | 0.00 | 0.01 | 0.01 | 57 | 1011.8 |
| 20260503025929 | 47 | 45 | 0.0 | 0.0 | 0.00 | 0.01 | 0.01 | 60 | 1011.8 |
| 20260503023927 | 47 | 45 | 0.0 | 0.0 | 0.00 | 0.01 | 0.01 | 59 | 1011.8 |
| 20260503022936 | 48 | 45 | 0.0 | 0.0 | 0.00 | 0.01 | 0.01 | 57 | 1011.8 |
| 20260503021925 | 48 | 42 | 0.0 | 1.7 | 0.00 | 0.01 | 0.01 | 55 | 1011.8 |
| 20260503020934 | 48 | 21 | 0.0 | 0.9 | 0.00 | 0.01 | 0.01 | 56 | 1011.8 |
| 20260503015928 | 48 | 358 | 0.0 | 1.7 | 0.00 | 0.01 | 0.01 | 56 | 1011.8 |
| 20260503014938 | 49 | 343 | 0.9 | 2.6 | 0.00 | 0.01 | 0.01 | 56 | 1011.8 |
| 20260503013927 | 49 | 99 | 0.0 | 4.3 | 0.00 | 0.01 | 0.01 | 57 | 1011.9 |
| 20260503012936 | 49 | 30 | 0.0 | 0.0 | 0.00 | 0.01 | 0.01 | 61 | 1011.9 |
| 20260503011925 | 49 | 30 | 0.0 | 0.0 | 0.00 | 0.01 | 0.01 | 63 | 1011.9 |
| 20260503010934 | 50 | 30 | 0.0 | 0.0 | 0.00 | 0.01 | 0.01 | 59 | 1011.8 |
| 20260503005924 | 50 | 30 | 0.0 | 0.0 | 0.00 | 0.01 | 0.01 | 59 | 1011.5 |
| 20260503002935 | 51 | 30 | 0.0 | 0.0 | 0.00 | 0.01 | 0.01 | 54 | 1011.1 |